Location: Easthampton
(42.2676°N, 72.6690°W)
Time: 04:49:30
(UTC+00:00)

N. Korean satellite - Pass Details

Date: 04 December 2022
Orbit: 407 x 444 km, 97.3° (Epoch: 28 January)

Event Time Altitude Azimuth Distance (km) Brightness Sun altitude
Rises 11:17:33 0° 351° (N) 2,511 9.9 -8.4°
Reaches altitude 10° 11:20:31 10° 323° (NW) 1,621 8.7 -7.9°
Maximum altitude 11:22:10 13° 294° (WNW) 1,435 8.3 -7.6°
Drops below altitude 10° 11:23:49 10° 266° (W) 1,603 8.7 -7.3°
Sets 11:26:42 0° 237° (WSW) 2,458 9.8 -6.8°
